Regional Weather Roundup
Issued by NWS

Home | Current Version | Previous Version | Graphics & Text | Print | Product List | Glossary On
Versions: 1 2 3 4 5 6 7 8 9 10 11 12 13 14 15 16 17 18 19 20 21 22 23 24 25 26 27 28 29 30 31 32 33 34 35 36 37 38 39 40 41 42 43 44 45 46 47 48 49 50
000
ASUS43 KLOT 040900
RWRIL

ILLINOIS REGIONAL WEATHER ROUNDUP
NATIONAL WEATHER SERVICE CHICAGO/ROMEOVILLE IL
400 AM CDT SAT JUL 04 2015

NOTE: "FAIR" INDICATES FEW OR NO CLOUDS BELOW 12,000 FEET WITH NO
SIGNIFICANT WEATHER AND/OR OBSTRUCTIONS TO VISIBILITY.

* THESE STATIONS ARE NOT UNDER NWS QUALITY CONTROL. THEY ALSO MAY NOT
  REPORT WEATHER SUCH AS PRECIPITATION OR FOG.

ILZ001-002-007-009-015-016-024-041000-
NORTHWEST ILLINOIS

CITY           SKY/WX    TMP DP  RH WIND       PRES   REMARKS
MOLINE         CLEAR     58  55  90 CALM      29.97S FOG
STERLING*        N/A     55  55 100 CALM      29.97S VSB 1/2
$$

ILZ003-004-008-010-011-017-018-041000-
NORTH CENTRAL ILLINOIS

CITY           SKY/WX    TMP DP  RH WIND       PRES   REMARKS
ROCKFORD       CLEAR     59  56  89 CALM      29.98R
$$

ILZ005-006-012>014-019>023-041000-
NORTHEAST ILLINOIS

CITY           SKY/WX    TMP DP  RH WIND       PRES   REMARKS
CHICAGO-OHARE  CLEAR     61  54  77 W3        29.95S
CHICAGO-MIDWAY CLEAR     63  56  78 CALM      29.96R
AURORA         CLEAR     57  54  89 CALM      29.97R FOG
LANSING*       CLEAR     57  54  91 CALM      29.96R FOG
WAUKEGAN       CLEAR     57  53  86 CALM      29.95R
DUPAGE AIRPORT CLEAR     58  54  86 CALM      29.96S
WHEELING       CLEAR     59  54  83 CALM      29.96F
NORTHERLY ISL    N/A     66  53  63 SW8         N/A
$$

LMZ740>746-041000-
SOUTHERN LAKE MICHIGAN

STATION/POSITION SKY/WX   TEMP    WIND        PRES    VSBY  WAVE
                          AIR SEA DIR/SP/G                  HT/PER
                          (F)     (DEG/KT/KT) (MB)    (MI)  (FT/S)
HARRISON CRIB              66     270/  3/  4   N/A
BURNHAM HARBOR             66     260/  5/  6   N/A
CALUMET HARBOR             62      CALM  /  1   N/A
BURNS HARBOR               62     210/  2/  4 1014.9S
MICHIGAN CITY              59     200/  4/  4   N/A
MICHIGAN CITY 6N           63 63  240/  4/  4   N/A           1
ST. JOSEPH                 62 62                N/A           0
$$

ILZ025>027-034>036-040-047-049-050-058-095>099-041000-
WEST-CENTRAL ILLINOIS

CITY           SKY/WX    TMP DP  RH WIND       PRES   REMARKS
QUINCY         CLEAR     62  59  90 N6        29.96F
MACOMB*        CLEAR     57  57  99 CALM      29.99F
$$

ILZ028>032-037-038-041>044-048-051>054-059>061-041000-
CENTRAL ILLINOIS

CITY           SKY/WX    TMP DP  RH WIND       PRES   REMARKS
DECATUR        CLEAR     59  58  96 CALM      29.96S FOG
PEORIA         CLEAR     62  58  86 CALM      29.97S FOG
SPRINGFIELD    FOG       62  59  90 CALM      29.96S VSB 1/4
TAYLORVILLE    NOT AVBL
$$

ILZ033-039-045-046-055>057-062-063-041000-
EAST-CENTRAL ILLINOIS

CITY           SKY/WX    TMP DP  RH WIND       PRES   REMARKS
CHAMPAIGN      CLEAR     57  55  93 N3        29.96S FOG
MATTOON        CLEAR     61  59  93 CALM      29.94S FOG
$$

ILZ079-100>102-041000-
SOUTHWEST ILLINOIS

CITY           SKY/WX    TMP DP  RH WIND       PRES   REMARKS
BELLEVILLE     CLEAR     66  66 100 N3        29.92F
CAHOKIA*       CLEAR     67  65  93 CALM      29.94S FOG
SPARTA*        CLEAR     67  66  97 NE6       29.94S FOG
$$

ILZ064>066-069>071-074>076-080>082-084>086-088>090-092>094-041000-
SOUTH-CENTRAL ILLINOIS

CITY           SKY/WX    TMP DP  RH WIND       PRES   REMARKS
CARBONDALE     CLEAR     68  66  93 MISG      29.92S FOG
MT. VERNON     CLEAR     64  59  82 N3        29.94F
SALEM*         CLEAR     67  64  91 CALM      29.94F FOG
$$

ILZ067-068-072-073-078-083-087-091-041000-
SOUTHEAST ILLINOIS

CITY           SKY/WX    TMP DP  RH WIND       PRES   REMARKS
LAWRENCEVILLE  PTCLDY    65  63  93 CALM      29.94R FOG
HARRISBURG*    CLEAR     68  68 100 CALM      29.94S FOG
CARMI*         CLEAR     67  62  85 N5        29.92S HAZE
$$

ABBREVIATIONS USED IN REMARKS
   TC - TEMPERATURE IN CELSIUS
  WCI - WIND CHILL INDEX
   HX - HEAT INDEX
  VSB - VISIBILITY
$$




USA.gov is the U.S. government's official web portal to all federal, state and local government web resources and services.